Find Starlink 33720

NORAD ID: 63468 Int'l Des: 2025-070 Owner: SPXS Country: US Constellation: starlink operational
LEOCIRCULAR

Live Position

Loading 3D Globe...

About Starlink 33720

Description loading...

Upcoming Passes

Passes for default location (London). Set your location on the main map for personalized predictions.

Altitude History

Loading altitude history...

Two-Line Element Set

1 63468U 25070J 26106.20775903 .00011006 00000-0 40884-3 0 9994
2 63468 43.0024 47.9782 0001975 266.7376 93.3250 15.27583918 58710
Epoch: Apr 16, 2026 • Age: 13 hours

Current Status

Altitude 484.8 km
Velocity 7.63 km/s
Sub-Earth Point 31.35°N, 25.73°W
Launch Date Apr 6, 2025
Age 1 years
Type internet

Technical Details

Classification Payload
Mass 575.00 kg
Dry Mass 530.00 kg
Total Mass 575.00 kg
Length 0.30 m
Diameter 4.10 m
Span 29.00 m
Shape Box + pan
Manufacturer SPXS
Bus Type Starlink V2MO
Phase Status In Orbit
Owner/State SPXS/US

Most Searched